Regional Weather Roundup
Issued by NWS

Home | Current Version | Previous Version | Text Only | Print | Product List | Glossary On
Versions: 1 2 3 4 5 6 7 8 9 10 11 12 13 14 15 16 17 18 19 20 21 22 23 24 25 26 27 28 29 30 31 32 33 34 35 36 37 38 39 40 41 42 43 44 45 46 47 48 49 50
000
ASUS43 KMKX 020111
RWRWI

WISCONSIN REGIONAL WEATHER ROUNDUP
NATIONAL WEATHER SERVICE MILWAUKEE/SULLIVAN WI
800 PM CDT SUN MAY 01 2016

NOTE: "FAIR" INDICATES FEW OR NO CLOUDS BELOW 12,000 FEET WITH NO
SIGNIFICANT WEATHER AND/OR OBSTRUCTIONS TO VISIBILITY.

WIZ001-002-006>008-014>016-023>028-020200-
NORTHWEST WISCONSIN

CITY           SKY/WX    TMP DP  RH WIND       PRES   REMARKS
SUPERIOR ARPT  CLEAR     41  34  76 E5        30.18S
ASHLAND        CLEAR     44  35  70 E7        30.18S
HAYWARD        CLEAR     50  33  52 NE12      30.14R
SIREN          CLEAR     56  33  41 N8G17     30.13R
CUMBERLAND     CLEAR     55  32  41 N12       30.10R
RICE LAKE      CLEAR     57  34  41 N12       30.11R
CHETEK         CLEAR     58  37  46 N7        30.09R
LADYSMITH      CLEAR     57  35  44 N7        30.11R
EAU CLAIRE     CLOUDY    59  34  39 N6        30.06S
MENOMONIE      CLOUDY    61  31  33 N7        30.07S
NEW RICHMOND   CLEAR     57  33  39 N6        30.10R
OSCEOLA        CLEAR     58  31  36 N6        30.13R
$$

WIZ003>005-009-010-017-018-020200-
NORTH CENTRAL WISCONSIN

CITY           SKY/WX    TMP DP  RH WIND       PRES   REMARKS
MANITOWISH WTR CLEAR     52  34  50 N8        30.12R
ARBOR VITAE    PTCLDY    57  34  42 N6        30.10R
WOODRUFF       PTCLDY    57  34  42 N6        30.10R
RHINELANDER    CLOUDY    54  30  40 NE3       30.09R
EAGLE RIVER    CLOUDY    53  29  40 NE6       30.10R
LAND O LAKES   CLEAR     53  30  41 N10       30.12R
PHILLIPS       PTCLDY    54  37  51 N7        30.09R
TOMAHAWK       CLOUDY    53  31  42 CALM      30.09R
MEDFORD        CLOUDY    55  32  41 E5        30.08R
MERRILL        CLOUDY    55  32  41 CALM      30.09R
$$

WIZ029-030-035-036-043>047-020200-
CENTRAL WISCONSIN

CITY           SKY/WX    TMP DP  RH WIND       PRES   REMARKS
WAUSAU         MOCLDY    57  32  38 SE7       30.07R
MOSINEE        PTCLDY    54  30  40 E8        30.09
MARSHFIELD     CLOUDY    54  34  46 SE8       30.07R
STEVENS POINT  CLOUDY    51  32  49 E8        30.09R
WAUPACA        PTCLDY    55  37  50 E10G16    30.09R
WAUTOMA        PTCLDY    53  37  54 NE9       30.08R
WISC RAPIDS    CLOUDY    54  33  45 E7        30.09R
CAMP DOUGLAS   NOT AVBL
$$

WIZ011>013-019>022-031-037>040-048>050-020200-
NORTHEAST WISCONSIN

CITY           SKY/WX    TMP DP  RH WIND       PRES   REMARKS
ANTIGO         PTCLDY    49  34  55 SE9       30.09R
SHAWANO        CLEAR     52  37  56 E7        30.10S
OCONTO         CLEAR     49  38  66 E3        30.09F
STURGEON BAY   CLEAR     50  36  57 NE3       30.12S
GREEN BAY      MOCLDY    52  40  63 NE9       30.09S
MANITOWOC      CLOUDY    48  37  65 MISG      30.08S
APPLETON       PTCLDY    52  37  58 E12       30.07R
CLINTONVILLE   PTCLDY    50  34  53 E8        30.09S
OSHKOSH        CLOUDY    50  40  68 NE12      30.07R
$$

WIZ032>034-041-042-053>061-020200-
SOUTHWEST WISCONSIN

CITY           SKY/WX    TMP DP  RH WIND       PRES   REMARKS
LA CROSSE      CLOUDY    57  36  45 CALM      30.07R
SPARTA         CLOUDY    56  34  43 E7        30.08R
VIROQUA        CLOUDY    49  45  87 SW9       30.08R
BOSCOBEL       LGT RAIN  48  46  93 S3        30.08R FOG
PRAIRIE DU CHI LGT RAIN  49  43  80 NE6       30.08S
PLATTEVILLE    CLOUDY    49  47  93 N14       30.03S
$$

WIZ056-057-062-063-064-067-068-020200-
SOUTH CENTRAL WISCONSIN

CITY           SKY/WX    TMP DP  RH WIND       PRES   REMARKS
REEDSBURG      CLOUDY    52  39  61 NE6       30.06R
BARABOO/DELLS  CLOUDY    51  37  57 NE7       30.06R
LONE ROCK      LGT RAIN  50  42  74 NE12      30.07R
MINERAL POINT  LGT RAIN  50  45  81 N8        30.04R
MADISON        CLOUDY    51  41  68 NE10      30.03R
MIDDLETON      CLOUDY    52  43  70 NE13      30.04S
WATERTOWN      CLOUDY    48  42  80 NE7       30.03R
MONROE         RAIN      50  43  76 NE13      30.00R
JANESVILLE     DRIZZLE   50  46  87 NE9       30.00S
$$

WIZ051-052-058>065-066-070>072-020200-
SOUTHEAST WISCONSIN

CITY           SKY/WX    TMP DP  RH WIND       PRES   REMARKS
MILWAUKEE      DRZL/FOG  43  42  97 NE14      30.02S VSB 1/2
WAUKESHA       MOCLDY    46  43  87 E12       30.03S
MILWAUKEE/TIMM CLOUDY    45  43  93 NE8       30.04R
RACINE         LGT RAIN  44  42  93 NE14      30.01F FOG
BURLINGTON     CLOUDY    46  43  90 NE10G20   30.00S
KENOSHA        CLOUDY    45  43  93 N10       29.99F
FOND DU LAC    CLOUDY    50  42  74 NE12      30.06S
SHEBOYGAN      CLOUDY    47  38  71 NE14      30.06S
WEST BEND      CLOUDY    45  41  87 NE9       30.05R
JUNEAU         CLOUDY    49  41  74 NE9G17    30.06R
$$

LSZ147-162-020200-
LAKE SUPERIOR

STATION/POSITION TIME  TEMP    WIND        PRES    WAVE
                       AIR SEA DIR/SP/G            HT/PER
                 (UTC) (F)     (DEG/KT/KT) (MB)    (FT/S)
W MID LAKE BUOY  0050   41 37   20/  6/  8 1022.3R   2/ 6
DEVILS ISLAND    0000   38      30/  4/  5 1022.8F
SAXON HARBOR     0000   40     340/  4/  5 1021.3F
$$

LMZ867-665-643>646-020200-
LAKE MICHIGAN

STATION/POSITION TIME  TEMP    WIND        PRES    WAVE
                       AIR SEA DIR/SP/G            HT/PER
                 (UTC) (F)     (DEG/KT/KT) (MB)    (FT/S)
CHAMBERS ISLAND  0000   49     350/  3/  4 1019.6R
N MID LAKE BUOY  0050   42 39  310/  6/  6 1019.4R   0
NORTHPORT PIER   0000   50      CALM  /  2 1019.3R
KEWAUNEE LAKESHO 0000           20/ 10/ 13 1018.3F
SHEBOYGAN LAKESH 0100   42      20/ 15/ 16 1018.6F
PORT WASHINGTON  0040   46      20/  8/ 14 1017.9F
S MID LAKE BUOY  0050   44 40   40/ 14/ 14 1015.7F   2/ 4
KENOSHA   LAKESH 0100   43      20/ 18/ 22 1014.9F
$$

TC  - TEMPERATURE IN CELSIUS
VSB - VISIBILITY IN STATUTE MILES
WCI - WIND CHILL INDEX
HX  - HEAT INDEX





USA.gov is the U.S. government's official web portal to all federal, state and local government web resources and services.